Hourly Data Report for August 25, 2006

TORONTO CITY
ONTARIO

43°40'00.000" N
79°24'00.000" W
112.50 m
6158355
71508
XTO

Download Data

Hourly Data (August 2006)
Hourly Data Report for August 25, 2006
TIME
LST
Temp Definition
°C
Dew Point Definition
°C
Rel Hum Definition
%
Precip. Amount Definition
mm

Wind Dir Definition
10's deg

Wind Spd Definition
km/h
Visibility Definition
km
Stn Press Definition
kPa
Hmdx Definition


Wind Chill Definition


Weather Definition


00:00 19.8 16.6 82   LegendMM LegendMM   100.10     LegendNANA
01:00 19.7 16.5 82   LegendMM LegendMM   100.08     LegendNANA
02:00 19.3 16.6 84   LegendMM LegendMM   100.03     LegendNANA
03:00 18.9 16.6 87   LegendMM LegendMM   100.07     LegendNANA
04:00 18.8 16.6 87   LegendMM LegendMM   100.04     LegendNANA
05:00 18.5 16.2 86   LegendMM LegendMM   100.09     LegendNANA
06:00 18.5 15.4 82   LegendMM LegendMM   100.09     LegendNANA
07:00 18.2 14.2 77   LegendMM LegendMM   100.16     LegendNANA
08:00 18.1 13.0 72   LegendMM LegendMM   100.25     LegendNANA
09:00 18.1 12.8 71   LegendMM LegendMM   100.26     LegendNANA
10:00 17.1 13.8 81   LegendMM LegendMM   100.22     LegendNANA
11:00 16.2 14.4 89   LegendMM LegendMM   100.36     LegendNANA
12:00 16.2 14.7 91   LegendMM LegendMM   100.24     LegendNANA
13:00 16.8 15.5 92   LegendMM LegendMM   100.29     LegendNANA
14:00 17.3 15.3 88   LegendMM LegendMM   100.27     LegendNANA
15:00 18.3 15.6 84   LegendMM LegendMM   100.21     LegendNANA
16:00 18.5 15.2 81   LegendMM LegendMM   100.21     LegendNANA
17:00 18.4 15.0 81   LegendMM LegendMM   100.21     LegendNANA
18:00 18.1 14.7 81   LegendMM LegendMM   100.26     LegendNANA
19:00 18.0 14.1 78   LegendMM LegendMM   100.30     LegendNANA
20:00 17.6 13.6 77   LegendMM LegendMM   100.31     LegendNANA
21:00 17.2 13.3 78   LegendMM LegendMM   100.42     LegendNANA
22:00 15.5 14.3 93   LegendMM LegendMM   100.49     LegendNANA
23:00 15.6 14.9 96   LegendMM LegendMM   100.45     LegendNANA

Notes on Data Quality.

Legend

  • E = Estimated
  • M = Missing
  • NA = Not Available*
  • [empty] = Indicates an unobserved value
Date modified: